Weather Roundup
Issued by NWS Chicago, IL

Home | Current Version | Previous Version | Graphics & Text | Print | Product List | Glossary On
Versions: 1 2 3 4 5 6 7 8 9 10 11 12 13 14 15 16 17 18 19 20 21 22 23 24 25 26 27 28 29 30 31 32 33 34 35 36 37 38 39 40 41 42 43 44 45 46 47 48 49 50
817
NZUS59 KLOT 230602
HRRLOT

CHICAGO AREA WEATHER ROUNDUP
NATIONAL WEATHER SERVICE CHICAGO/ROMEOVILLE IL
100 AM CDT THU MAR 23 2017

NOTE: "FAIR" INDICATES FEW OR NO CLOUDS BELOW 12,000 FEET WITH NO
SIGNIFICANT WEATHER AND/OR OBSTRUCTIONS TO VISIBILITY.

* THESE STATIONS ARE NOT UNDER NWS QUALITY CONTROL. THEY ALSO MAY NOT
  REPORT WEATHER SUCH AS PRECIPITATION OR FOG.

ILZ005-006-012>014-019>023-230700-
NORTHEAST ILLINOIS

CITY           SKY/WX    TMP DP  RH WIND       PRES   REMARKS
OHARE          PTCLDY    31  22  69 E7        30.45F WCI  24
6HR MIN TEMP:  28; 6HR MAX TEMP:  31;

MIDWAY         PTCLDY    32  25  75 E6        30.46F WCI  26
6HR MIN TEMP:  31; 6HR MAX TEMP:  32;

AURORA         CLOUDY    31  22  69 E10       30.44F WCI  22
6HR MIN TEMP:  27; 6HR MAX TEMP:  36;

LANSING*       CLEAR     28  23  81 E3        30.48S
JOLIET*        CLOUDY    32  24  71 E9        30.44F WCI  24
WAUKEGAN       CLEAR     21  18  88 E5        30.46F WCI  15
6HR MIN TEMP:  20; 6HR MAX TEMP:  27;

DUPAGE AIRPORT CLOUDY    29  22  75 E7        30.43F WCI  22
6HR MIN TEMP:  25; 6HR MAX TEMP:  32;

WHEELING       CLEAR     25  21  85 CALM      30.47F
6HR MIN TEMP:  25; 6HR MAX TEMP:  28;

KANKAKEE*      CLOUDY    27  23  84 CALM      30.45F
MORRIS*        CLOUDY    30  22  73 E7        30.43F WCI  23
NORTHERLY ISL    N/A     33  25  72 E12         N/A  WCI  24
$$

WIZ051-052-058>065-066-070>072-230700-
SOUTHEAST WISCONSIN

CITY           SKY/WX    TMP DP  RH WIND       PRES   REMARKS
MILWAUKEE      PTCLDY    26  17  68 CALM      30.47F
6HR MIN TEMP:  25; 6HR MAX TEMP:  28;

KENOSHA*       CLEAR     21  18  88 E3        30.46F
RACINE*        CLEAR     22  18  85 CALM      30.49F FOG
WAUKESHA       CLEAR     21  18  86 E3        30.46F
WEST BEND      CLEAR     21  21 100 CALM      30.45F
$$

INZ001>003-010>013-019-020-230700-
NORTHWEST INDIANA

CITY           SKY/WX    TMP DP  RH WIND       PRES   REMARKS
GARY*          CLEAR     29  21  72 E3        30.48F
6HR MIN TEMP:  28; 6HR MAX TEMP:  32;

MICHIGAN CITY* NOT AVBL
RENSSELAER*    NOT AVBL
VALPARAISO     CLEAR     26  21  81 E3        30.48S
$$

LMZ740>746-230700-
SOUTHERN LAKE MICHIGAN

STATION/POSITION TIME  SKY/WX   TEMP WIND        PRES    VSBY
                                AIR  DIR/SP/G
                 (UTC)          (F)  (DEG/KT/KT) (MB)    (MI)
HARRISON CRIB    0540            34  120/ 11/ 12   N/A
BURNHAM HARBOR   0600            33  120/ 11       N/A
CALUMET HARBOR   0530            33  110/  6/  8 1031.5R
BURNS HARBOR     0540            30  100/  5/  7 1032.5S
MICHIGAN CITY    0540            29   70/  4/  5   N/A
$$

ABBREVIATIONS USED IN REMARKS
   TC - TEMPERATURE IN CELSIUS
  WCI - WIND CHILL INDEX
   HX - HEAT INDEX
  VSB - VISIBILITY
$$




USA.gov is the U.S. government's official web portal to all federal, state and local government web resources and services.